This is the latest recevied weather packets stored in our database for station/object VK2OB. If no packets are shown the sender has not sent any weather packets the latest 10 day(s).
| Time | Temp. | Humidity | Pressure | Rain* | Wind** | Luminosity | Snow |
|---|---|---|---|---|---|---|---|
| 1778138487 | 15° C | 31% | 1016.2 hPa | 0 mm | - | - | - |
| 1778138188 | 15° C | 29% | 1016.1 hPa | 0 mm | - | - | - |
| 1778137889 | 15° C | 27% | 1016.1 hPa | 0 mm | - | - | - |
| 1778137590 | 15.56° C | 26% | 1016.1 hPa | 0 mm | - | - | - |
| 1778137291 | 15.56° C | 25% | 1016 hPa | 0 mm | - | - | - |
| 1778136992 | 15.56° C | 25% | 1016 hPa | 0 mm | - | - | - |
| 1778136693 | 15.56° C | 24% | 1015.8 hPa | 0 mm | - | - | - |
| 1778136394 | 15.56° C | 24% | 1015.8 hPa | 0 mm | - | - | - |
| 1778136095 | 16.11° C | 23% | 1015.8 hPa | 0 mm | - | - | - |
| 1778135796 | 16.11° C | 22% | 1015.6 hPa | 0 mm | - | - | - |
| 1778135497 | 16.11° C | 22% | 1015.6 hPa | 0 mm | - | - | - |
| 1778135198 | 16.11° C | 20% | 1015.6 hPa | 0 mm | - | - | - |
| 1778134899 | 16.67° C | 20% | 1015.3 hPa | 0 mm | - | - | - |
| 1778134600 | 16.67° C | 20% | 1015.3 hPa | 0 mm | - | - | - |
| 1778134301 | 16.67° C | 20% | 1015.3 hPa | 0 mm | - | - | - |
| 1778134002 | 16.67° C | 20% | 1015.1 hPa | 0 mm | - | - | - |
| 1778133703 | 16.67° C | 19% | 1015 hPa | 0 mm | - | - | - |
| 1778133404 | 16.67° C | 19% | 1014.9 hPa | 0 mm | - | - | - |
| 1778133105 | 17.22° C | 18% | 1014.9 hPa | 0 mm | - | - | - |
| 1778132806 | 17.22° C | 19% | 1014.9 hPa | 0 mm | - | - | - |
| 1778132507 | 17.78° C | 19% | 1014.7 hPa | 0 mm | - | - | - |
| 1778132208 | 17.78° C | 19% | 1014.4 hPa | 0 mm | - | - | - |
| 1778131909 | 17.22° C | 19% | 1014.4 hPa | 0 mm | - | - | - |
| 1778131610 | 17.78° C | 19% | 1014.5 hPa | 0 mm | - | - | - |
| 1778131311 | 17.78° C | 19% | 1014.5 hPa | 0 mm | - | - | - |
* Rain latest hour (hover to see other rain measurements)
** Current wind speed in m/s (hover to see current wind gust speed)